User: anonymous   Login
Location: Iesi
(43.5167°N, 13.2333°E)
Time: 07:43:35
(UTC+00:00)
Language:

IRIDIUM 104 - Orbit

View from above orbital plane
View from above orbital plane
View from above satellite
View from above satellite

Ground track
Ground track

The orbit data is extracted from the following two-line orbital elements,

1 41922U 17003F   20299.87552810 +.00000075 +00000-0 +19622-4 0  9993
2 41922 086.4011 229.3430 0001911 089.2405 270.9010 14.34215843197969
Epoch (UTC): 25 October 2020 21:00:45
Eccentricity: 0.0001911
inclination: 86.4011°
perigee height: 776 km
apogee height: 779 km
right ascension of ascending node: 229.3430°
argument of perigee: 89.2405°
revolutions per day: 14.34215843
mean anomaly at epoch: 270.9010°
orbit number at epoch: 19796

The dashed part of the orbit path shows where the satellite is in the earth's shadow,  

DLR